COSMOS 1275 DEB

Satellite information

Favourite Embed

Satellite Type and Status

DEBRISIN ORBIT

Key statistics

Satellite COSMOS 1275 DEB at a glance.

Uptime

16105

Days in orbit

Revolutions

≈ 14.0

Per day

Orbit

LEO

Low Earth Orbit

Inclination

83.3

Latest

Satellite identification and parameters

Extended collection of information and parameters for COSMOS 1275 DEB.

Object identification

Identified? True

Debris? True

Object name: COSMOS 1275 DEB

International designator: 1981-053LS

Object number (NORAD): 18505

Object ID (CCSDS): 18505

Country: COMMONWEALTH OF INDEPENDENT STATES (CIS)

Current information (Y/N): Y

RCS size: SMALL

Orbital parameters

Period: 102.911 minutes

Inclination: 83.2887 deg

SMA: 7274.486 km

Apoapsis: 948.592 km

Periapsis: 844.11 km

RAAN: 333.9613 deg

Eccentricy: 0.0071814

Argument of periapsis: 250.3705 deg

Mean anomaly: 108.9705 deg

Mean motion: 13.99262733 rev/day

Mean motion (dot): 0.00001244 rev/day2

B* drag term: 0.00082813 1/REarth

Two-line elements (TLE)

Creation date: July 6, 2025, 10:46 p.m.

Reference frame: TEME

Reference center: EARTH

Epoch: July 6, 2025, 8:30 p.m. UTC

TLE line 0: 0 COSMOS 1275 DEB

TLE line 1: 1 18505U 81053LS 25187.85475000 .00001244 00000-0 82813-3 0 9994

TLE line 2: 2 18505 83.2887 333.9613 0071814 250.3705 108.9705 13.99262733 25235

Live tracking on map

Real-time ground track for satellite COSMOS 1275 DEB.

In-orbit conjunctions

A list of the most updated potential collisions computed for object COSMOS 1275 DEB.

Target Orbit TCA Probability of collision Miss distance Type
COSMOS 626 LEO 2024-08-13 10:06:27 0.0001344362 562.0 (m) PAYLOAD

Associated space launch

Navigation satellite providing location information for the Tsiklon-B navigation system

COSMOS 1275 DEB was lifted into orbit during the mission ‘Kosmos-3M | Parus 27’, on board a Kosmos-3M space rocket.

The launch took place on June 4, 1981, 3:41 p.m. from 132/2.

For more information about the launch, click the button.

Launch to space Kosmos-3M | Parus 27
Kosmos-3M | Parus 27

Agency: N/A

Status: Launch Successful

Launch date: June 4, 1981, 3:41 p.m. UTC

Rocket: Kosmos-3M

Launch pad: 132/2

Location: Plesetsk Cosmodrome, Russian Federation

...

Latest news about this satellite

There are no fresh news available about this satellite. Check back as we update our databases every day.


Newsletter sign-up

Weekly statistics, charts and insights to help you stay on top of the space industry.